Regional Weather Roundup
Issued by NWS

Home | Current Version | Previous Version | Graphics & Text | Print | Product List | Glossary On
Versions: 1 2 3 4 5 6 7 8 9 10 11 12 13 14 15 16 17 18 19 20 21 22 23 24 25 26 27 28 29 30 31 32 33 34 35 36 37 38 39 40 41 42 43 44 45 46 47 48 49 50
000
ASUS45 KBOU 301107
RWRCO

WEATHER ROUNDUP FOR COLORADO
NATIONAL WEATHER SERVICE DENVER/BOULDER CO
500 AM MDT MON MAR 30 2015

NOTE: "FAIR" INDICATES FEW OR NO CLOUDS BELOW 12000 FEET WITH NO
SIGNIFICANT WEATHER AND/OR OBSTRUCTIONS TO VISIBILITY.

COZ001>005-013-030-031-301200-
...NORTHWEST COLORADO...

CITY           SKY/WX    TMP DP  RH WIND       PRES   REMARKS
CRAIG          PTCLDY    24  20  84 CALM      30.27R
HAYDEN         PTCLDY    28  16  59 CALM      30.27R
MEEKER         CLEAR     29  19  66 CALM      30.26R
MOUNT WERNER   NOT AVBL
STEAMBOAT SPGS PTCLDY    31  21  66 CALM      30.27R
WALDEN         CLEAR     27  16  63 S6        30.27S WCI  20
$$

COZ006>008-011-301200-
...WEST CENTRAL VALLEYS...

CITY           SKY/WX    TMP DP  RH WIND       PRES   REMARKS
GRAND JUNCTION PTCLDY    45  15  30 E12       30.17R
MONTROSE       PTCLDY    41  18  39 SE7       30.24S
EAGLE          CLEAR     30  19  64 CALM      30.30R
RIFLE          CLEAR     34  16  47 SW6       30.23R WCI  29
DELTA          PTCLDY    42  14  32 E7        30.22R
NUCLA          MOCLDY    43  14  31 CALM      30.27R
$$

COZ017>023-064>068-301200-
...SOUTHWEST COLORADO...

CITY           SKY/WX    TMP DP  RH WIND       PRES   REMARKS
DURANGO        MOCLDY    39  18  42 VRB6      30.26S
CORTEZ         CLEAR     34  19  54 SE3       30.24R
PAGOSA SPRINGS MOCLDY    35  22  58 CALM      30.31S
TELLURIDE      NOT AVBL
WOLF CREEK PAS PTCLDY    30   9  40 SW17      30.48S WCI  18
$$

COZ009-010-012-014-032>034-037-058>063-301200-
...CENTRAL COLORADO...

CITY           SKY/WX    TMP DP  RH WIND       PRES   REMARKS
ASPEN          CLEAR     31  16  54 S7        30.29R WCI  24
BUENA VISTA    CLEAR     26  18  72 W8        30.30R WCI  17
COPPER MTN     CLEAR     34   1  25 W10G24    30.42R WCI  26
BERTHOUD PASS  FAIR      27  19  74 W33G43    30.38F WCI   9
COTTONWOOD PAS CLEAR     41   0  17 NW6       30.34R
GUNNISON       PTCLDY    23  18  80 NE6       30.37R WCI  16
KREMMLING      PTCLDY    23  19  86 N3        30.31S
LEADVILLE      CLEAR     22   8  55 NE8       30.34S WCI  12
SALIDA         CLEAR     34  20  57 W5        30.37R WCI  29
SUNLIGHT       CLEAR     34  12  40 CALM      30.41F
WILKERSON PASS PTCLDY    34   1  25 W10G21    30.38F WCI  26
$$

COZ069>075-301200-
...SAN LUIS VALLEY/SANGRE DE CRISTO MOUNTAINS...

CITY           SKY/WX    TMP DP  RH WIND       PRES   REMARKS
ALAMOSA        PTCLDY    35  21  56 CALM      30.28S
LA VETA PASS   CLEAR     34  23  64 SW9G26    30.35R WCI  26
SAGUACHE       CLEAR     34   9  35 N13       30.31R WCI  25
$$

COZ035-036-038>040-301200-
...NORTHERN COLORADO FRONT RANGE...

CITY           SKY/WX    TMP DP  RH WIND       PRES   REMARKS
DENVER INTL AP CLEAR     38  25  59 SW10      30.11S
DMNS CITY PARK   N/A     41  26  54 E3        30.12R
AURORA         CLEAR     43  21  40 S10       30.13R
FRONT RANGE AP CLEAR     41  27  56 SW7       30.12S
ERIE MUNI ARPT CLEAR     32  28  84 CALM      30.11R
BOULDER MUN AP CLEAR     41  27  56 SW7       30.10R
CENTENNIAL     CLEAR     47  20  34 SW9       30.13R
BROOMFIELD     CLEAR     41  28  60 S5        30.12R
FORT COLLINS   PTCLDY    37  21  52 CALM      30.12S
LONGMONT       PTCLDY    34  26  72 CALM      30.13R
$$

COZ041-046-047-076>085-087-088-301200-
...PIKES PEAK/PALMER DIVIDE AND SOUTHERN FOOTHILLS...

CITY           SKY/WX    TMP DP  RH WIND       PRES   REMARKS
COLO. SPRINGS  CLEAR     36  21  54 N7        30.18S
A. F. ACADEMY  CLEAR     28  20  72 N8        30.18S WCI  20
ELLICOTT       CLEAR    N/A N/A N/A N3        30.16S
FALCON         CLEAR     33  20  59 NW9       30.19S WCI  25
FORT CARSON    NOT AVBL
LIMON          CLEAR     26  20  77 N8        30.14F WCI  18
MONUMENT HILL  CLEAR     37  18  44 SW12      30.17S
TRINIDAD       PTCLDY    50  25  37 W12G21    30.17R
$$

COZ042>045-048>051-090-091-301200-
...NORTHEAST COLORADO...

CITY           SKY/WX    TMP DP  RH WIND       PRES   REMARKS
GREELEY ARPT   PTCLDY    28  14  54 CALM      30.10S
AKRON          CLEAR     42  23  46 W14       30.09S
BURLINGTON     CLEAR     42  24  49 S13       30.12S
WRAY           CLEAR     46  26  44 SW15      30.08F
STERLING       CLEAR     32  27  80 S8        30.08S WCI  25
HOLYOKE        NOT AVBL
FORT MORGAN    CLEAR     35   4  26 W9        30.10S WCI  28
$$

COZ086-089-092>099-301200-
...SOUTHEAST COLORADO...

CITY           SKY/WX    TMP DP  RH WIND       PRES   REMARKS
PUEBLO         CLEAR     35  23  61 W3        30.14S
LA JUNTA       CLEAR     43  27  53 W8        30.12S
LAMAR          CLEAR     46  25  43 W5        30.10S
SPRINGFIELD      N/A     38  26  62 S7        30.16S
$$



USA.gov is the U.S. government's official web portal to all federal, state and local government web resources and services.